KI8L Weather Reports


Display with metric or nautical units.
time (UTC)temp
F
wind
direction
speed
MPH
gust
MPH
rain 1hr
in
rain 24hr
in
rain mn
in
humidity
%
barometer
mb
20260503233323 57 190 6.0 8.0 0.00 0.00 0.00 48 1014.9
20260503232820 57 190 3.0 3.0 0.00 0.00 0.00 49 1014.9
20260503232318 56 216 3.0 4.0 0.00 0.00 0.00 48 1015.0
20260503231815 57 200 10.0 13.0 0.00 0.00 0.00 48 1014.9
20260503231312 57 191 9.0 10.0 0.00 0.00 0.00 47 1014.9
20260503230808 57 205 10.0 11.0 0.00 0.00 0.00 46 1015.1
20260503230305 57 202 5.0 7.0 0.00 0.00 0.00 48 1014.9
20260503225803 57 210 6.0 8.0 0.00 0.00 0.00 47 1014.9
20260503225258 57 187 4.0 6.0 0.00 0.00 0.00 47 1015.0
20260503224755 57 182 8.0 8.0 0.00 0.00 0.00 44 1015.0
20260503224252 57 223 5.0 7.0 0.00 0.00 0.00 48 1015.0
20260503223750 58 178 7.0 9.0 0.00 0.00 0.00 47 1015.2
20260503223248 58 188 8.0 9.0 0.00 0.00 0.00 43 1015.1
20260503222743 58 219 8.0 9.0 0.00 0.00 0.00 46 1015.3
20260503222241 58 238 8.0 9.0 0.00 0.00 0.00 45 1015.2
20260503221740 58 220 5.0 6.0 0.00 0.00 0.00 45 1015.4
20260503221237 58 252 3.0 6.0 0.00 0.00 0.00 45 1015.2
20260503220733 58 213 4.0 6.0 0.00 0.00 0.00 44 1015.2
20260503220231 58 243 5.0 6.0 0.00 0.00 0.00 46 1015.1
20260503215727 59 216 5.0 7.0 0.00 0.00 0.00 46 1015.1
20260503215224 58 216 4.0 6.0 0.00 0.00 0.00 46 1015.3
20260503214723 58 248 5.0 6.0 0.00 0.00 0.00 45 1015.4
20260503214219 59 160 5.0 7.0 0.00 0.00 0.00 46 1015.4
20260503213717 59 253 4.0 4.0 0.00 0.00 0.00 45 1015.4
20260503213214 59 177 11.0 14.0 0.00 0.00 0.00 44 1015.3
20260503212711 58 10 4.0 4.0 0.00 0.00 0.00 46 1015.4
20260503212208 58 198 6.0 9.0 0.00 0.00 0.00 44 1015.5
20260503211706 59 163 9.0 14.0 0.00 0.00 0.00 43 1015.4
20260503211201 59 227 6.0 8.0 0.00 0.00 0.00 45 1015.3
20260503210658 59 250 6.0 9.0 0.00 0.00 0.00 45 1015.5
20260503210155 59 259 6.0 8.0 0.00 0.00 0.00 44 1015.5
20260503205650 59 196 11.0 13.0 0.00 0.00 0.00 45 1015.5
20260503205146 60 178 5.0 7.0 0.00 0.00 0.00 45 1015.5
20260503204643 59 235 5.0 7.0 0.00 0.00 0.00 43 1015.4
20260503204141 59 249 4.0 6.0 0.00 0.00 0.00 46 1015.5
20260503203638 60 236 6.0 8.0 0.00 0.00 0.00 44 1015.6
20260503203136 60 249 6.0 8.0 0.00 0.00 0.00 41 1015.7
20260503202633 60 236 6.0 7.0 0.00 0.00 0.00 42 1015.7
20260503202131 59 229 6.0 7.0 0.00 0.00 0.00 43 1015.7
20260503201628 59 187 6.0 8.0 0.00 0.00 0.00 50 1015.8
20260503201125 61 233 7.0 9.0 0.00 0.00 0.00 43 1015.8
20260503200621 59 198 6.0 8.0 0.00 0.00 0.00 43 1015.9
20260503200118 59 221 5.0 6.0 0.00 0.00 0.00 43 1016.0
20260503195615 58 220 6.0 8.0 0.00 0.00 0.00 47 1016.0
20260503195112 58 209 11.0 14.0 0.00 0.00 0.00 43 1016.1
20260503194610 59 197 6.0 8.0 0.00 0.00 0.00 44 1016.1
20260503194109 59 231 5.0 7.0 0.00 0.00 0.00 43 1016.3
20260503193607 60 188 10.0 14.0 0.00 0.00 0.00 44 1016.2
20260503193102 60 175 10.0 13.0 0.00 0.00 0.00 43 1016.4
20260503192558 59 207 3.0 4.0 0.00 0.00 0.00 44 1016.5
20260503192054 58 168 10.0 13.0 0.00 0.00 0.00 46 1016.6
20260503191551 59 187 6.0 10.0 0.00 0.00 0.00 46 1016.6
20260503191048 61 227 6.0 8.0 0.00 0.00 0.00 41 1016.9
20260503190545 59 164 4.0 6.0 0.00 0.00 0.00 47 1016.8
20260503190042 59 229 5.0 7.0 0.00 0.00 0.00 45 1016.8
20260503185538 59 225 9.0 13.0 0.00 0.00 0.00 45 1017.0
20260503185038 58 230 7.0 8.0 0.00 0.00 0.00 47 1017.0
20260503184534 58 203 13.0 18.0 0.00 0.00 0.00 48 1017.0
20260503184031 60 172 9.0 14.0 0.00 0.00 0.00 43 1017.0
20260503183528 60 208 3.0 3.0 0.00 0.00 0.00 48 1017.0
20260503183025 59 235 4.0 4.0 0.00 0.00 0.00 45 1017.0
20260503182523 60 261 4.0 4.0 0.00 0.00 0.00 42 1017.4
20260503182021 60 243 3.0 4.0 0.00 0.00 0.00 46 1017.5
20260503181518 60 223 7.0 9.0 0.00 0.00 0.00 48 1017.6
20260503181014 59 178 10.0 13.0 0.00 0.00 0.00 45 1017.6
20260503180511 60 217 4.0 6.0 0.00 0.00 0.00 43 1017.5
20260503180009 59 226 5.0 8.0 0.00 0.00 0.00 48 1017.6
20260503175506 58 247 3.0 3.0 0.00 0.00 0.00 48 1017.7
20260503175003 58 227 5.0 7.0 0.00 0.00 0.00 46 1017.7
20260503174500 59 247 3.0 4.0 0.00 0.00 0.00 44 1017.7
20260503173956 59 186 8.0 13.0 0.00 0.00 0.00 50 1017.9
20260503173451 59 222 3.0 4.0 0.00 0.00 0.00 44 1018.0
20260503172948 58 229 5.0 6.0 0.00 0.00 0.00 44 1018.0
20260503172446 57 230 6.0 9.0 0.00 0.00 0.00 48 1017.8
20260503171942 60 189 4.0 6.0 0.00 0.00 0.00 52 1017.9
20260503171439 58 249 6.0 8.0 0.00 0.00 0.00 50 1018.1
20260503170937 59 205 6.0 8.0 0.00 0.00 0.00 47 1018.2
20260503170432 59 218 4.0 6.0 0.00 0.00 0.00 49 1018.0
20260503150825 54 234 5.0 6.0 0.00 0.00 0.00 50 1018.9
20260503150321 55 219 5.0 7.0 0.00 0.00 0.00 50 1019.0
20260503140245 51 154 3.0 8.0 0.00 0.00 0.00 56 1019.4
20260503131215 46 201 2.0 3.0 0.00 0.00 0.00 68 1019.6
20260503130712 45 190 4.0 4.0 0.00 0.00 0.00 66 1019.7
20260503130210 45 182 6.0 7.0 0.00 0.00 0.00 68 1019.8
20260503120135 33 277 1.0 1.0 0.00 0.00 0.00 99 1019.5
20260503110603 28 288 0.0 0.0 0.00 0.00 0.00 99 1019.1
20260503090450 29 288 0.0 0.0 0.00 0.00 0.00 99 1018.8
20260503081416 30 288 0.0 0.0 0.00 0.00 0.00 99 1019.0
20260503080913 30 288 0.0 0.0 0.00 0.00 0.00 99 1019.0
20260503080410 30 288 0.0 0.0 0.00 0.00 0.00 99 1018.9
20260503072846 30 288 0.0 0.0 0.00 0.00 0.00 99 1018.9
20260503072343 30 288 0.0 0.0 0.00 0.00 0.00 99 1018.9
20260503071840 30 288 0.0 0.0 0.00 0.00 0.00 99 1018.9
20260503071337 30 288 0.0 0.0 0.00 0.00 0.00 99 1019.0
20260503070833 31 288 0.0 0.0 0.00 0.00 0.00 99 1018.8
20260503070331 31 288 0.0 0.0 0.00 0.00 0.00 99 1018.8
20260503060302 33 288 0.0 0.0 0.00 0.00 0.00 99 1018.9
20260503054749 33 288 0.0 0.0 0.00 0.00 0.00 99 1019.3
20260503054246 33 288 0.0 0.0 0.00 0.00 0.00 99 1019.2
20260503053744 33 288 0.0 0.0 0.00 0.00 0.00 99 1019.2
20260503053243 34 288 0.0 0.0 0.00 0.00 0.00 99 1019.1
20260503052738 34 288 0.0 0.0 0.00 0.00 0.00 99 1019.2
20260503052235 34 288 0.0 0.0 0.00 0.00 0.00 99 1019.0
20260503051730 34 288 0.0 0.0 0.00 0.00 0.00 99 1019.3
20260503051228 35 288 0.0 0.0 0.00 0.00 0.00 99 1019.2
20260503050724 35 288 0.0 0.0 0.00 0.00 0.00 98 1019.1
20260503050221 35 288 0.0 0.0 0.00 0.00 0.00 98 1019.1
20260503045719 36 288 0.0 0.0 0.00 0.00 0.00 98 1019.0
20260503045216 37 288 0.0 0.0 0.00 0.00 0.00 98 1019.3
20260503044712 37 288 0.0 0.0 0.00 0.00 0.00 98 1019.2
20260503044210 37 288 0.0 0.0 0.00 0.00 0.00 97 1019.2
20260503043706 38 288 0.0 0.0 0.00 0.00 0.00 97 1019.2
20260503043204 38 287 0.0 0.0 0.00 0.00 0.00 98 1019.2
20260503042659 38 287 1.0 1.0 0.00 0.00 0.00 97 1019.3
20260503042156 38 287 0.0 1.0 0.00 0.00 0.00 98 1019.2
20260503041652 38 287 1.0 1.0 0.00 0.00 0.00 98 1019.2
20260503041150 38 288 0.0 0.0 0.00 0.00 0.00 98 1019.3
20260503040648 38 287 0.0 0.0 0.00 0.00 0.00 98 1019.3
20260503040145 38 287 1.0 1.0 0.00 0.00 0.00 98 1019.3
20260503035641 38 288 0.0 0.0 0.00 0.00 0.00 98 1019.4
20260503035139 38 288 0.0 0.0 0.00 0.00 0.00 98 1019.3
20260503034636 38 287 0.0 0.0 0.00 0.00 0.00 98 1019.5
20260503034133 38 287 0.0 0.0 0.00 0.00 0.00 98 1019.2
20260503033630 38 287 0.0 0.0 0.00 0.00 0.00 98 1019.3
20260503033128 38 287 0.0 0.0 0.00 0.00 0.00 99 1019.4
20260503032626 38 287 0.0 0.0 0.00 0.00 0.00 98 1019.4
20260503032125 38 287 0.0 0.0 0.00 0.00 0.00 98 1019.4
20260503031622 38 287 0.0 0.0 0.00 0.00 0.00 97 1019.2
20260503031119 38 288 0.0 0.0 0.00 0.00 0.00 96 1019.3
20260503030615 38 288 0.0 0.0 0.00 0.00 0.00 96 1019.6
20260503030112 38 288 0.0 0.0 0.00 0.00 0.00 96 1019.5
20260503025608 38 288 0.0 0.0 0.00 0.00 0.00 96 1019.5
20260503025107 38 288 0.0 0.0 0.00 0.00 0.00 96 1019.5
20260503024603 38 288 0.0 0.0 0.00 0.00 0.00 96 1019.6
20260503024100 38 288 0.0 0.0 0.00 0.00 0.00 96 1019.6
20260503023556 38 288 0.0 0.0 0.00 0.00 0.00 96 1019.6
20260503023054 38 288 0.0 0.0 0.00 0.00 0.00 96 1019.7
20260503022550 38 287 0.0 0.0 0.00 0.00 0.00 97 1019.8
20260503022044 38 288 0.0 0.0 0.00 0.00 0.00 94 1019.6
20260503021542 38 288 0.0 0.0 0.00 0.00 0.00 94 1019.7
20260503021038 38 288 0.0 0.0 0.00 0.00 0.00 95 1019.8
20260503020536 38 288 0.0 0.0 0.00 0.00 0.00 96 1019.7
20260503020033 39 287 0.0 0.0 0.00 0.00 0.00 96 1019.6
20260503015529 39 288 0.0 0.0 0.00 0.00 0.00 96 1019.5
20260503015027 39 288 0.0 0.0 0.00 0.00 0.00 96 1019.4
20260503014522 39 287 0.0 0.0 0.00 0.00 0.00 94 1019.6
20260503014021 39 287 0.0 0.0 0.00 0.00 0.00 93 1019.3
20260503013517 39 288 0.0 0.0 0.00 0.00 0.00 93 1019.6
20260503013015 39 288 0.0 0.0 0.00 0.00 0.00 94 1019.4
20260503012513 39 288 0.0 0.0 0.00 0.00 0.00 91 1019.5
20260503012009 39 288 0.0 0.0 0.00 0.00 0.00 94 1019.5
20260503011506 39 288 0.0 0.0 0.00 0.00 0.00 93 1019.6
20260503011003 39 288 0.0 0.0 0.00 0.00 0.00 92 1019.5
20260503010459 39 288 0.0 0.0 0.00 0.00 0.00 91 1019.4
20260503005956 39 288 0.0 0.0 0.00 0.00 0.00 91 1019.4
20260503005453 40 288 0.0 0.0 0.00 0.00 0.00 91 1019.4
20260503004950 40 288 0.0 0.0 0.00 0.00 0.00 91 1019.4
20260503004447 40 288 0.0 0.0 0.00 0.00 0.00 88 1019.5
20260503003945 41 288 0.0 0.0 0.00 0.00 0.00 85 1019.3
20260503003441 41 288 0.0 0.0 0.00 0.00 0.00 87 1019.3
20260503002938 41 288 0.0 1.0 0.00 0.00 0.00 85 1019.3
20260503002435 41 288 0.0 0.0 0.00 0.00 0.00 78 1019.2
20260503001932 41 288 1.0 1.0 0.00 0.00 0.00 80 1019.4
20260503001428 41 288 0.0 0.0 0.00 0.00 0.00 80 1019.4
20260503000926 41 288 0.0 0.0 0.00 0.00 0.00 80 1019.3
20260503000422 41 288 0.0 0.0 0.00 0.00 0.00 77 1019.4
20260502235920 41 288 0.0 0.0 0.00 0.00 0.00 78 1019.3
20260502235417 41 288 0.0 0.0 0.00 0.00 0.00 81 1019.3
20260502234914 41 288 0.0 0.0 0.00 0.00 0.00 78 1019.3
20260502234411 41 288 0.0 0.0 0.00 0.00 0.00 77 1019.1
20260502233908 41 288 0.0 0.0 0.00 0.00 0.00 76 1019.4